PRIVATE WETTERSTATION BILLIGHEIM-ALLFELD                       ZURCK
Wetterdaten: Mittwoch, 11.05.2016
Datum Zeit Temp. A. Temp. A. min Temp. A. max Feuchte A. Luftdruck Regen Wind Richtung Richtung Sonnenschein ET Solar Taupunkt Windchill Windben Empfang
11.05.2016 00:00 12,7 C 12,7 C 12,7 C 91 % 1008,1 hPa 0,0 l/m 0,0 km/h (0 Bft) S 173 0 min 0,000 mm 0 W/m 11,3 C 12,7 C 1,6 km/h (1 Bft) 97 %
11.05.2016 00:10 12,7 C 12,7 C 12,7 C 91 % 1008,0 hPa 0,0 l/m 0,2 km/h (0 Bft) S 169 0 min 0,000 mm 0 W/m 11,3 C 12,7 C 4,8 km/h (1 Bft) 97 %
11.05.2016 00:20 12,6 C 12,6 C 12,7 C 91 % 1007,9 hPa 0,0 l/m 0,1 km/h (0 Bft) S 169 0 min 0,000 mm 0 W/m 11,2 C 12,6 C 1,6 km/h (1 Bft) 98 %
11.05.2016 00:30 12,2 C 12,2 C 12,6 C 91 % 1008,0 hPa 0,0 l/m 1,0 km/h (0 Bft) S-SO 167 0 min 0,000 mm 0 W/m 10,8 C 12,2 C 4,8 km/h (1 Bft) 97 %
11.05.2016 00:40 12,0 C 12,0 C 12,2 C 91 % 1007,8 hPa 0,0 l/m 0,6 km/h (0 Bft) SO 134 0 min 0,000 mm 0 W/m 10,6 C 12,0 C 4,8 km/h (1 Bft) 98 %
11.05.2016 00:50 11,7 C 11,7 C 12,0 C 91 % 1007,7 hPa 0,0 l/m 0,4 km/h (0 Bft) O 92 0 min 0,000 mm 0 W/m 10,3 C 11,7 C 4,8 km/h (1 Bft) 96 %
11.05.2016 01:00 11,6 C 11,6 C 11,7 C 91 % 1007,6 hPa 0,0 l/m 0,1 km/h (0 Bft) O 92 0 min 0,000 mm 0 W/m 10,2 C 11,6 C 3,2 km/h (1 Bft) 99 %
11.05.2016 01:10 11,6 C 11,6 C 11,6 C 91 % 1007,6 hPa 0,0 l/m 0,2 km/h (0 Bft) O 92 0 min 0,000 mm 0 W/m 10,2 C 11,6 C 3,2 km/h (1 Bft) 97 %
11.05.2016 01:20 11,4 C 11,4 C 11,6 C 94 % 1007,3 hPa 0,0 l/m 0,0 km/h (0 Bft) O 92 0 min 0,000 mm 0 W/m 10,5 C 11,4 C 1,6 km/h (1 Bft) 100 %
11.05.2016 01:30 11,3 C 11,3 C 11,4 C 91 % 1007,4 hPa 0,0 l/m 1,5 km/h (1 Bft) NO 38 0 min 0,000 mm 0 W/m 9,9 C 11,3 C 4,8 km/h (1 Bft) 100 %
11.05.2016 01:40 11,2 C 11,2 C 11,3 C 91 % 1007,3 hPa 0,0 l/m 0,0 km/h (0 Bft) NO 38 0 min 0,000 mm 0 W/m 9,8 C 11,2 C 1,6 km/h (1 Bft) 100 %
11.05.2016 01:50 11,0 C 11,0 C 11,2 C 91 % 1007,3 hPa 0,0 l/m 0,4 km/h (0 Bft) NO 38 0 min 0,000 mm 0 W/m 9,6 C 11,0 C 3,2 km/h (1 Bft) 100 %
11.05.2016 02:00 10,9 C 10,9 C 11,0 C 91 % 1007,3 hPa 0,0 l/m 0,2 km/h (0 Bft) NO 38 0 min 0,000 mm 0 W/m 9,5 C 10,9 C 3,2 km/h (1 Bft) 99 %
11.05.2016 02:10 10,8 C 10,8 C 10,9 C 91 % 1007,2 hPa 0,0 l/m 0,0 km/h (0 Bft) NO 38 0 min 0,000 mm 0 W/m 9,4 C 10,8 C 1,6 km/h (1 Bft) 99 %
11.05.2016 02:20 10,8 C 10,8 C 10,8 C 91 % 1007,1 hPa 0,0 l/m 0,1 km/h (0 Bft) NO 38 0 min 0,000 mm 0 W/m 9,4 C 10,8 C 3,2 km/h (1 Bft) 100 %
11.05.2016 02:30 10,7 C 10,7 C 10,8 C 91 % 1007,1 hPa 0,0 l/m 0,0 km/h (0 Bft) NO 38 0 min 0,000 mm 0 W/m 9,3 C 10,7 C 0,0 km/h (0 Bft) 100 %
11.05.2016 02:40 10,6 C 10,6 C 10,7 C 91 % 1007,1 hPa 0,0 l/m 0,0 km/h (0 Bft) NO 38 0 min 0,000 mm 0 W/m 9,2 C 10,6 C 0,0 km/h (0 Bft) 100 %
11.05.2016 02:50 10,5 C 10,5 C 10,6 C 91 % 1007,0 hPa 0,0 l/m 0,3 km/h (0 Bft) NO 38 0 min 0,000 mm 0 W/m 9,1 C 10,5 C 3,2 km/h (1 Bft) 100 %
11.05.2016 03:00 10,4 C 10,4 C 10,5 C 91 % 1007,1 hPa 0,0 l/m 0,0 km/h (0 Bft) NO 38 0 min 0,000 mm 0 W/m 9,0 C 10,4 C 1,6 km/h (1 Bft) 100 %
11.05.2016 03:10 10,3 C 10,3 C 10,4 C 91 % 1007,0 hPa 0,0 l/m 0,4 km/h (0 Bft) NO 38 0 min 0,000 mm 0 W/m 8,9 C 10,3 C 4,8 km/h (1 Bft) 100 %
11.05.2016 03:20 10,2 C 10,2 C 10,3 C 91 % 1006,8 hPa 0,2 l/m 0,0 km/h (0 Bft) NO 38 0 min 0,000 mm 0 W/m 8,8 C 10,2 C 1,6 km/h (1 Bft) 100 %
11.05.2016 03:30 10,1 C 10,1 C 10,2 C 91 % 1006,7 hPa 0,0 l/m 0,4 km/h (0 Bft) NO 38 0 min 0,000 mm 0 W/m 8,7 C 10,1 C 3,2 km/h (1 Bft) 100 %
11.05.2016 03:40 10,0 C 10,0 C 10,1 C 91 % 1006,5 hPa 0,0 l/m 0,6 km/h (0 Bft) N-NO 26 0 min 0,000 mm 0 W/m 8,6 C 10,0 C 4,8 km/h (1 Bft) 100 %
11.05.2016 03:50 9,9 C 9,9 C 10,0 C 91 % 1006,5 hPa 0,0 l/m 0,0 km/h (0 Bft) N-NO 26 0 min 0,000 mm 0 W/m 8,5 C 9,9 C 0,0 km/h (0 Bft) 100 %
11.05.2016 04:00 9,8 C 9,8 C 9,9 C 91 % 1006,3 hPa 0,0 l/m 0,0 km/h (0 Bft) N-NO 26 0 min 0,000 mm 0 W/m 8,4 C 9,8 C 0,0 km/h (0 Bft) 100 %
11.05.2016 04:10 9,6 C 9,6 C 9,8 C 91 % 1006,4 hPa 0,0 l/m 0,5 km/h (0 Bft) N-NO 24 0 min 0,000 mm 0 W/m 8,2 C 9,6 C 4,8 km/h (1 Bft) 100 %
11.05.2016 04:20 9,6 C 9,6 C 9,6 C 91 % 1006,3 hPa 0,0 l/m 0,3 km/h (0 Bft) N-NO 23 0 min 0,000 mm 0 W/m 8,2 C 9,6 C 4,8 km/h (1 Bft) 100 %
11.05.2016 04:30 9,6 C 9,6 C 9,6 C 91 % 1006,1 hPa 0,0 l/m 1,1 km/h (1 Bft) N-NO 15 0 min 0,000 mm 0 W/m 8,2 C 9,6 C 4,8 km/h (1 Bft) 100 %
11.05.2016 04:40 9,6 C 9,6 C 9,7 C 91 % 1005,9 hPa 0,0 l/m 0,0 km/h (0 Bft) N-NO 15 0 min 0,000 mm 0 W/m 8,2 C 9,6 C 0,0 km/h (0 Bft) 100 %
11.05.2016 04:50 9,6 C 9,6 C 9,6 C 91 % 1005,9 hPa 0,0 l/m 0,0 km/h (0 Bft) N-NO 15 0 min 0,000 mm 0 W/m 8,2 C 9,6 C 0,0 km/h (0 Bft) 100 %
11.05.2016 05:00 9,6 C 9,6 C 9,6 C 91 % 1006,1 hPa 0,0 l/m 0,0 km/h (0 Bft) N 360 0 min 0,000 mm 0 W/m 8,2 C 9,6 C 0,0 km/h (0 Bft) 99 %
11.05.2016 05:10 9,6 C 9,6 C 9,6 C 91 % 1006,1 hPa 0,0 l/m 0,0 km/h (0 Bft) N 360 0 min 0,000 mm 0 W/m 8,2 C 9,6 C 0,0 km/h (0 Bft) 100 %
11.05.2016 05:20 9,7 C 9,6 C 9,7 C 91 % 1006,0 hPa 0,0 l/m 0,3 km/h (0 Bft) N-NW 346 0 min 0,000 mm 0 W/m 8,3 C 9,7 C 4,8 km/h (1 Bft) 100 %
11.05.2016 05:30 9,6 C 9,6 C 9,7 C 91 % 1006,1 hPa 0,0 l/m 0,0 km/h (0 Bft) N-NW 346 0 min 0,000 mm 0 W/m 8,2 C 9,6 C 1,6 km/h (1 Bft) 100 %
11.05.2016 05:40 9,4 C 9,4 C 9,6 C 91 % 1006,0 hPa 0,0 l/m 0,0 km/h (0 Bft) N-NW 346 0 min 0,000 mm 0 W/m 8,0 C 9,4 C 0,0 km/h (0 Bft) 100 %
11.05.2016 05:50 9,5 C 9,4 C 9,5 C 91 % 1005,9 hPa 0,0 l/m 0,0 km/h (0 Bft) N-NW 346 0 min 0,000 mm 0 W/m 8,1 C 9,5 C 0,0 km/h (0 Bft) 100 %
11.05.2016 06:00 9,4 C 9,4 C 9,6 C 91 % 1005,9 hPa 0,0 l/m 0,4 km/h (0 Bft) N-NW 346 0 min 0,000 mm 5 W/m 8,0 C 9,4 C 4,8 km/h (1 Bft) 100 %
11.05.2016 06:10 9,3 C 9,3 C 9,4 C 91 % 1006,0 hPa 0,0 l/m 1,5 km/h (1 Bft) N 355 0 min 0,000 mm 11 W/m 7,9 C 9,3 C 4,8 km/h (1 Bft) 100 %
11.05.2016 06:20 9,3 C 9,3 C 9,3 C 91 % 1005,8 hPa 0,0 l/m 0,5 km/h (0 Bft) N 350 0 min 0,000 mm 18 W/m 7,9 C 9,3 C 6,4 km/h (2 Bft) 100 %
11.05.2016 06:30 9,4 C 9,3 C 9,4 C 91 % 1005,9 hPa 0,0 l/m 0,7 km/h (0 Bft) N 350 0 min 0,000 mm 30 W/m 8,0 C 9,4 C 4,8 km/h (1 Bft) 100 %
11.05.2016 06:40 9,5 C 9,4 C 9,5 C 91 % 1005,9 hPa 0,0 l/m 0,0 km/h (0 Bft) N 350 0 min 0,000 mm 47 W/m 8,1 C 9,5 C 1,6 km/h (1 Bft) 100 %
11.05.2016 06:50 9,6 C 9,5 C 9,6 C 91 % 1006,1 hPa 0,0 l/m 0,3 km/h (0 Bft) N 350 0 min 0,000 mm 69 W/m 8,2 C 9,6 C 3,2 km/h (1 Bft) 99 %
11.05.2016 07:00 9,9 C 9,6 C 9,9 C 91 % 1005,9 hPa 0,0 l/m 0,1 km/h (0 Bft) N 350 0 min 0,025 mm 79 W/m 8,5 C 9,9 C 3,2 km/h (1 Bft) 100 %
11.05.2016 07:10 10,3 C 9,9 C 10,3 C 91 % 1005,8 hPa 0,0 l/m 0,0 km/h (0 Bft) N 350 0 min 0,000 mm 83 W/m 8,9 C 10,3 C 1,6 km/h (1 Bft) 100 %
11.05.2016 07:20 10,7 C 10,3 C 10,7 C 91 % 1005,5 hPa 0,0 l/m 0,0 km/h (0 Bft) N 350 0 min 0,000 mm 91 W/m 9,3 C 10,7 C 0,0 km/h (0 Bft) 100 %
11.05.2016 07:30 11,2 C 10,7 C 11,2 C 91 % 1005,1 hPa 0,0 l/m 0,0 km/h (0 Bft) N 350 0 min 0,000 mm 102 W/m 9,8 C 11,2 C 0,0 km/h (0 Bft) 100 %
11.05.2016 07:40 11,8 C 11,2 C 11,8 C 91 % 1005,1 hPa 0,0 l/m 0,0 km/h (0 Bft) N 350 0 min 0,000 mm 116 W/m 10,4 C 11,8 C 1,6 km/h (1 Bft) 100 %
11.05.2016 07:50 12,1 C 11,8 C 12,1 C 92 % 1005,1 hPa 0,0 l/m 0,0 km/h (0 Bft) N 350 0 min 0,000 mm 125 W/m 10,8 C 12,1 C 0,0 km/h (0 Bft) 100 %
11.05.2016 08:00 12,3 C 12,1 C 12,3 C 91 % 1005,1 hPa 0,0 l/m 0,0 km/h (0 Bft) N 350 0 min 0,000 mm 135 W/m 10,9 C 12,3 C 0,0 km/h (0 Bft) 100 %
11.05.2016 08:10 12,7 C 12,3 C 12,7 C 91 % 1005,1 hPa 0,0 l/m 0,0 km/h (0 Bft) N 350 0 min 0,051 mm 130 W/m 11,3 C 12,7 C 0,0 km/h (0 Bft) 99 %
11.05.2016 08:20 12,9 C 12,7 C 12,9 C 91 % 1005,1 hPa 0,0 l/m 0,2 km/h (0 Bft) N-NO 13 0 min 0,000 mm 141 W/m 11,5 C 12,9 C 3,2 km/h (1 Bft) 99 %
11.05.2016 08:30 13,0 C 12,9 C 13,0 C 91 % 1005,1 hPa 0,0 l/m 0,2 km/h (0 Bft) N-NO 15 10 min 0,000 mm 160 W/m 11,6 C 13,0 C 3,2 km/h (1 Bft) 99 %
11.05.2016 08:40 13,1 C 13,0 C 13,1 C 91 % 1005,1 hPa 0,0 l/m 0,4 km/h (0 Bft) NO 38 10 min 0,000 mm 171 W/m 11,7 C 13,1 C 6,4 km/h (2 Bft) 100 %
11.05.2016 08:50 13,3 C 13,1 C 13,3 C 91 % 1005,1 hPa 0,0 l/m 0,6 km/h (0 Bft) O-NO 72 10 min 0,000 mm 186 W/m 11,9 C 13,3 C 4,8 km/h (1 Bft) 100 %
11.05.2016 09:00 13,5 C 13,3 C 13,5 C 91 % 1005,1 hPa 0,0 l/m 1,2 km/h (1 Bft) NO 56 10 min 0,076 mm 163 W/m 12,1 C 13,5 C 8,0 km/h (2 Bft) 100 %
11.05.2016 09:10 13,7 C 13,5 C 13,7 C 91 % 1005,1 hPa 0,0 l/m 0,2 km/h (0 Bft) O-NO 57 10 min 0,000 mm 185 W/m 12,3 C 13,7 C 3,2 km/h (1 Bft) 99 %
11.05.2016 09:20 13,9 C 13,7 C 13,9 C 91 % 1005,1 hPa 0,0 l/m 0,2 km/h (0 Bft) O-NO 73 10 min 0,000 mm 221 W/m 12,5 C 13,9 C 4,8 km/h (1 Bft) 100 %
11.05.2016 09:30 14,2 C 13,9 C 14,2 C 91 % 1005,1 hPa 0,0 l/m 0,0 km/h (0 Bft) O 80 10 min 0,000 mm 209 W/m 12,8 C 14,2 C 1,6 km/h (1 Bft) 100 %
11.05.2016 09:40 14,5 C 14,2 C 14,5 C 90 % 1005,0 hPa 0,0 l/m 0,5 km/h (0 Bft) N-NW 347 10 min 0,000 mm 322 W/m 12,9 C 14,5 C 8,0 km/h (2 Bft) 99 %
11.05.2016 09:50 14,8 C 14,5 C 14,9 C 91 % 1005,0 hPa 0,0 l/m 0,4 km/h (0 Bft) N-NO 19 10 min 0,000 mm 265 W/m 13,3 C 14,8 C 6,4 km/h (2 Bft) 100 %
11.05.2016 10:00 15,1 C 14,8 C 15,1 C 90 % 1005,1 hPa 0,0 l/m 0,1 km/h (0 Bft) W-NW 289 10 min 0,127 mm 387 W/m 13,5 C 15,1 C 4,8 km/h (1 Bft) 100 %
11.05.2016 10:10 15,3 C 15,1 C 15,3 C 91 % 1005,0 hPa 0,0 l/m 0,0 km/h (0 Bft) N 11 10 min 0,000 mm 290 W/m 13,8 C 15,3 C 1,6 km/h (1 Bft) 99 %
11.05.2016 10:20 15,6 C 15,3 C 15,6 C 91 % 1005,0 hPa 0,0 l/m 0,3 km/h (0 Bft) N-NW 336 10 min 0,000 mm 427 W/m 14,1 C 15,6 C 4,8 km/h (1 Bft) 100 %
11.05.2016 10:30 15,9 C 15,6 C 15,9 C 91 % 1005,0 hPa 0,0 l/m 0,6 km/h (0 Bft) N-NW 339 10 min 0,000 mm 325 W/m 14,4 C 15,9 C 8,0 km/h (2 Bft) 100 %
11.05.2016 10:40 16,3 C 15,9 C 16,3 C 91 % 1004,9 hPa 0,0 l/m 0,1 km/h (0 Bft) O-NO 66 10 min 0,000 mm 297 W/m 14,8 C 16,3 C 3,2 km/h (1 Bft) 100 %
11.05.2016 10:50 16,5 C 16,3 C 16,5 C 90 % 1004,8 hPa 0,0 l/m 0,0 km/h (0 Bft) O 96 10 min 0,000 mm 360 W/m 14,9 C 16,5 C 1,6 km/h (1 Bft) 100 %
11.05.2016 11:00 17,0 C 16,5 C 17,0 C 88 % 1004,6 hPa 0,0 l/m 0,0 km/h (0 Bft) N-NO 20 10 min 0,204 mm 454 W/m 15,0 C 17,0 C 1,6 km/h (1 Bft) 100 %
11.05.2016 11:10 17,5 C 17,0 C 17,5 C 87 % 1004,5 hPa 0,0 l/m 0,0 km/h (0 Bft) O-SO 103 10 min 0,000 mm 469 W/m 15,3 C 17,5 C 1,6 km/h (1 Bft) 100 %
11.05.2016 11:20 17,8 C 17,5 C 17,8 C 85 % 1004,4 hPa 0,0 l/m 0,0 km/h (0 Bft) SO 128 10 min 0,000 mm 350 W/m 15,2 C 17,8 C 1,6 km/h (1 Bft) 100 %
11.05.2016 11:30 18,2 C 17,8 C 18,2 C 85 % 1004,4 hPa 0,0 l/m 0,0 km/h (0 Bft) O-SO 111 10 min 0,000 mm 538 W/m 15,6 C 18,2 C 1,6 km/h (1 Bft) 100 %
11.05.2016 11:40 18,4 C 18,2 C 18,4 C 83 % 1004,3 hPa 0,0 l/m 0,0 km/h (0 Bft) O-NO 77 10 min 0,000 mm 510 W/m 15,5 C 18,4 C 1,6 km/h (1 Bft) 100 %
11.05.2016 11:50 19,0 C 18,4 C 19,0 C 83 % 1004,1 hPa 0,0 l/m 0,4 km/h (0 Bft) N-NW 329 10 min 0,000 mm 656 W/m 16,0 C 19,0 C 6,4 km/h (2 Bft) 100 %
11.05.2016 12:00 19,3 C 19,0 C 19,3 C 80 % 1003,9 hPa 0,0 l/m 0,3 km/h (0 Bft) O-NO 60 10 min 0,279 mm 441 W/m 15,8 C 19,3 C 8,0 km/h (2 Bft) 100 %
11.05.2016 12:10 19,4 C 19,3 C 19,4 C 79 % 1003,8 hPa 0,0 l/m 0,0 km/h (0 Bft) NO 46 10 min 0,000 mm 381 W/m 15,7 C 19,4 C 1,6 km/h (1 Bft) 100 %
11.05.2016 12:20 19,5 C 19,4 C 19,5 C 79 % 1003,6 hPa 0,0 l/m 0,0 km/h (0 Bft) N 5 10 min 0,000 mm 373 W/m 15,8 C 19,5 C 1,6 km/h (1 Bft) 100 %
11.05.2016 12:30 19,6 C 19,5 C 19,6 C 78 % 1003,5 hPa 0,0 l/m 0,0 km/h (0 Bft) SW 229 10 min 0,000 mm 341 W/m 15,7 C 19,6 C 4,8 km/h (1 Bft) 100 %
11.05.2016 12:40 19,7 C 19,6 C 19,7 C 80 % 1003,2 hPa 0,0 l/m 0,1 km/h (0 Bft) NW 321 10 min 0,000 mm 390 W/m 16,1 C 19,7 C 4,8 km/h (1 Bft) 100 %
11.05.2016 12:50 19,9 C 19,7 C 19,9 C 80 % 1003,1 hPa 0,0 l/m 0,0 km/h (0 Bft) NW 319 10 min 0,000 mm 396 W/m 16,3 C 19,9 C 1,6 km/h (1 Bft) 100 %
11.05.2016 13:00 20,3 C 19,9 C 20,3 C 76 % 1002,9 hPa 0,0 l/m 0,2 km/h (0 Bft) S-SO 160 10 min 0,254 mm 819 W/m 15,9 C 20,3 C 6,4 km/h (2 Bft) 100 %
11.05.2016 13:10 21,0 C 20,3 C 21,0 C 71 % 1002,6 hPa 0,0 l/m 3,3 km/h (1 Bft) N-NW 337 10 min 0,000 mm 703 W/m 15,5 C 21,0 C 20,9 km/h (4 Bft) 100 %
11.05.2016 13:20 21,3 C 21,0 C 21,3 C 70 % 1002,7 hPa 0,0 l/m 2,0 km/h (1 Bft) O 84 10 min 0,000 mm 575 W/m 15,6 C 21,3 C 8,0 km/h (2 Bft) 100 %
11.05.2016 13:30 21,3 C 21,2 C 21,3 C 70 % 1002,7 hPa 0,0 l/m 2,8 km/h (1 Bft) O-SO 109 10 min 0,000 mm 487 W/m 15,6 C 21,3 C 14,5 km/h (3 Bft) 100 %
11.05.2016 13:40 21,1 C 21,1 C 21,3 C 67 % 1002,6 hPa 0,0 l/m 1,4 km/h (1 Bft) O 84 10 min 0,000 mm 350 W/m 14,7 C 21,1 C 8,0 km/h (2 Bft) 100 %
11.05.2016 13:50 20,9 C 20,9 C 21,1 C 68 % 1002,6 hPa 0,0 l/m 1,5 km/h (1 Bft) O-SO 109 10 min 0,000 mm 341 W/m 14,8 C 20,9 C 14,5 km/h (3 Bft) 100 %
11.05.2016 14:00 20,8 C 20,8 C 20,9 C 69 % 1002,5 hPa 0,0 l/m 0,8 km/h (0 Bft) N-NO 27 10 min 0,305 mm 343 W/m 14,9 C 20,8 C 12,9 km/h (3 Bft) 100 %
11.05.2016 14:10 20,8 C 20,7 C 20,8 C 73 % 1002,3 hPa 0,0 l/m 0,0 km/h (0 Bft) S-SO 147 10 min 0,000 mm 496 W/m 15,8 C 20,8 C 1,6 km/h (1 Bft) 100 %
11.05.2016 14:20 21,2 C 20,8 C 21,2 C 68 % 1002,3 hPa 0,0 l/m 2,9 km/h (1 Bft) N 11 10 min 0,000 mm 773 W/m 15,1 C 21,2 C 20,9 km/h (4 Bft) 100 %
11.05.2016 14:30 21,9 C 21,2 C 21,9 C 63 % 1002,2 hPa 0,0 l/m 1,2 km/h (1 Bft) O-NO 57 10 min 0,000 mm 742 W/m 14,5 C 21,9 C 8,0 km/h (2 Bft) 100 %
11.05.2016 14:40 22,4 C 21,9 C 22,4 C 62 % 1002,1 hPa 0,0 l/m 3,6 km/h (1 Bft) SO 133 10 min 0,000 mm 865 W/m 14,8 C 22,4 C 24,1 km/h (4 Bft) 100 %
11.05.2016 14:50 22,7 C 22,4 C 22,7 C 58 % 1002,2 hPa 0,0 l/m 1,4 km/h (1 Bft) W-SW 248 10 min 0,000 mm 747 W/m 14,0 C 22,7 C 16,1 km/h (3 Bft) 100 %
11.05.2016 15:00 22,5 C 22,5 C 22,7 C 60 % 1002,1 hPa 0,0 l/m 4,9 km/h (1 Bft) O 83 10 min 0,432 mm 705 W/m 14,3 C 22,5 C 20,9 km/h (4 Bft) 100 %
11.05.2016 15:10 22,6 C 22,5 C 22,6 C 65 % 1001,7 hPa 0,0 l/m 3,3 km/h (1 Bft) N-NW 345 10 min 0,000 mm 735 W/m 15,7 C 22,6 C 16,1 km/h (3 Bft) 100 %
11.05.2016 15:20 22,9 C 22,6 C 22,9 C 63 % 1001,7 hPa 0,0 l/m 0,4 km/h (0 Bft) SO 146 10 min 0,000 mm 301 W/m 15,5 C 22,9 C 6,4 km/h (2 Bft) 100 %
11.05.2016 15:30 22,7 C 22,7 C 23,0 C 58 % 1001,8 hPa 0,0 l/m 3,0 km/h (1 Bft) O-NO 61 10 min 0,000 mm 202 W/m 14,0 C 22,7 C 22,5 km/h (4 Bft) 100 %
11.05.2016 15:40 22,6 C 22,6 C 22,7 C 60 % 1001,7 hPa 0,0 l/m 2,0 km/h (1 Bft) NO 45 10 min 0,000 mm 179 W/m 14,4 C 22,6 C 14,5 km/h (3 Bft) 100 %
11.05.2016 15:50 22,4 C 22,4 C 22,6 C 63 % 1001,5 hPa 0,0 l/m 2,8 km/h (1 Bft) O 96 10 min 0,000 mm 195 W/m 15,0 C 22,4 C 24,1 km/h (4 Bft) 99 %
11.05.2016 16:00 22,3 C 22,3 C 22,4 C 66 % 1001,6 hPa 0,0 l/m 1,0 km/h (0 Bft) S-SO 152 10 min 0,228 mm 241 W/m 15,6 C 22,3 C 11,3 km/h (2 Bft) 100 %
11.05.2016 16:10 22,6 C 22,3 C 22,6 C 61 % 1001,5 hPa 0,0 l/m 0,3 km/h (0 Bft) SW 236 10 min 0,000 mm 211 W/m 14,7 C 22,6 C 8,0 km/h (2 Bft) 100 %
11.05.2016 16:20 22,7 C 22,6 C 22,7 C 61 % 1001,5 hPa 0,0 l/m 2,4 km/h (1 Bft) N-NO 26 10 min 0,000 mm 190 W/m 14,8 C 22,7 C 14,5 km/h (3 Bft) 100 %
11.05.2016 16:30 22,2 C 22,2 C 22,7 C 63 % 1001,4 hPa 0,0 l/m 0,8 km/h (0 Bft) O 80 10 min 0,000 mm 181 W/m 14,8 C 22,2 C 9,7 km/h (2 Bft) 100 %
11.05.2016 16:40 22,2 C 22,2 C 22,2 C 64 % 1001,2 hPa 0,0 l/m 0,9 km/h (0 Bft) SO 132 10 min 0,000 mm 241 W/m 15,1 C 22,2 C 9,7 km/h (2 Bft) 100 %
11.05.2016 16:50 22,2 C 22,2 C 22,2 C 66 % 1001,2 hPa 0,0 l/m 0,3 km/h (0 Bft) N-NW 327 0 min 0,000 mm 146 W/m 15,5 C 22,2 C 4,8 km/h (1 Bft) 100 %
11.05.2016 17:00 22,3 C 22,2 C 22,3 C 63 % 1001,1 hPa 0,0 l/m 1,0 km/h (0 Bft) NO 39 0 min 0,153 mm 134 W/m 14,9 C 22,3 C 8,0 km/h (2 Bft) 100 %
11.05.2016 17:10 22,2 C 22,2 C 22,3 C 62 % 1000,9 hPa 0,0 l/m 0,3 km/h (0 Bft) O-SO 113 0 min 0,000 mm 132 W/m 14,6 C 22,2 C 11,3 km/h (2 Bft) 100 %
11.05.2016 17:20 21,9 C 21,9 C 22,2 C 63 % 1000,9 hPa 0,0 l/m 0,4 km/h (0 Bft) N-NW 333 0 min 0,000 mm 135 W/m 14,5 C 21,9 C 8,0 km/h (2 Bft) 100 %
11.05.2016 17:30 21,8 C 21,8 C 21,9 C 63 % 1001,0 hPa 0,0 l/m 0,6 km/h (0 Bft) O-NO 65 0 min 0,000 mm 139 W/m 14,4 C 21,8 C 9,7 km/h (2 Bft) 100 %
11.05.2016 17:40 21,6 C 21,6 C 21,8 C 66 % 1000,8 hPa 0,0 l/m 0,4 km/h (0 Bft) O-NO 78 0 min 0,000 mm 125 W/m 15,0 C 21,6 C 8,0 km/h (2 Bft) 100 %
11.05.2016 17:50 21,3 C 21,3 C 21,6 C 67 % 1000,7 hPa 0,0 l/m 0,1 km/h (0 Bft) O-SO 111 0 min 0,000 mm 116 W/m 14,9 C 21,3 C 6,4 km/h (2 Bft) 100 %
11.05.2016 18:00 20,8 C 20,8 C 21,3 C 68 % 1000,7 hPa 0,0 l/m 0,9 km/h (0 Bft) SO 142 0 min 0,076 mm 114 W/m 14,7 C 20,8 C 14,5 km/h (3 Bft) 99 %
11.05.2016 18:10 20,6 C 20,6 C 20,8 C 68 % 1000,5 hPa 0,0 l/m 0,3 km/h (0 Bft) SO 133 10 min 0,000 mm 155 W/m 14,5 C 20,6 C 8,0 km/h (2 Bft) 100 %
11.05.2016 18:20 20,4 C 20,4 C 20,6 C 68 % 1000,4 hPa 0,0 l/m 0,4 km/h (0 Bft) O 95 0 min 0,000 mm 120 W/m 14,3 C 20,4 C 14,5 km/h (3 Bft) 100 %
11.05.2016 18:30 20,3 C 20,3 C 20,4 C 68 % 1000,3 hPa 0,0 l/m 0,2 km/h (0 Bft) O 80 0 min 0,000 mm 113 W/m 14,2 C 20,3 C 6,4 km/h (2 Bft) 99 %
11.05.2016 18:40 20,3 C 20,3 C 20,3 C 68 % 1000,3 hPa 0,0 l/m 0,5 km/h (0 Bft) O 101 0 min 0,000 mm 98 W/m 14,2 C 20,3 C 8,0 km/h (2 Bft) 99 %
11.05.2016 18:50 20,3 C 20,3 C 20,3 C 68 % 1000,2 hPa 0,0 l/m 0,8 km/h (0 Bft) N 5 0 min 0,000 mm 63 W/m 14,2 C 20,3 C 9,7 km/h (2 Bft) 99 %
11.05.2016 19:00 20,2 C 20,2 C 20,3 C 70 % 1000,1 hPa 0,0 l/m 0,5 km/h (0 Bft) N-NO 20 0 min 0,076 mm 76 W/m 14,5 C 20,2 C 6,4 km/h (2 Bft) 91 %
11.05.2016 19:10 20,1 C 20,1 C 20,2 C 69 % 1000,2 hPa 0,0 l/m 0,1 km/h (0 Bft) S-SO 157 0 min 0,000 mm 54 W/m 14,2 C 20,1 C 4,8 km/h (1 Bft) 100 %
11.05.2016 19:20 19,8 C 19,8 C 20,1 C 68 % 1000,1 hPa 0,0 l/m 0,5 km/h (0 Bft) O 92 0 min 0,000 mm 39 W/m 13,7 C 19,8 C 6,4 km/h (2 Bft) 100 %
11.05.2016 19:30 19,6 C 19,6 C 19,8 C 69 % 1000,0 hPa 0,0 l/m 0,8 km/h (0 Bft) O-SO 113 0 min 0,000 mm 26 W/m 13,8 C 19,6 C 8,0 km/h (2 Bft) 100 %
11.05.2016 19:40 19,4 C 19,4 C 19,6 C 69 % 999,9 hPa 0,0 l/m 0,9 km/h (0 Bft) NO 55 0 min 0,000 mm 12 W/m 13,6 C 19,4 C 9,7 km/h (2 Bft) 100 %
11.05.2016 19:50 19,2 C 19,2 C 19,4 C 69 % 999,8 hPa 0,0 l/m 0,2 km/h (0 Bft) N-NW 334 0 min 0,000 mm 0 W/m 13,4 C 19,2 C 4,8 km/h (1 Bft) 100 %
11.05.2016 20:00 18,8 C 18,8 C 19,2 C 69 % 1000,0 hPa 0,0 l/m 1,1 km/h (1 Bft) O-SO 117 0 min 0,025 mm 0 W/m 13,0 C 18,8 C 14,5 km/h (3 Bft) 100 %
11.05.2016 20:10 18,5 C 18,5 C 18,9 C 68 % 999,8 hPa 0,0 l/m 0,8 km/h (0 Bft) O-NO 74 0 min 0,000 mm 0 W/m 12,5 C 18,5 C 8,0 km/h (2 Bft) 100 %
11.05.2016 20:20 18,3 C 18,3 C 18,5 C 70 % 999,8 hPa 0,0 l/m 1,2 km/h (1 Bft) N 351 0 min 0,000 mm 0 W/m 12,7 C 18,3 C 11,3 km/h (2 Bft) 100 %
11.05.2016 20:30 17,9 C 17,9 C 18,3 C 70 % 999,8 hPa 0,0 l/m 0,4 km/h (0 Bft) NO 44 0 min 0,000 mm 0 W/m 12,3 C 17,9 C 8,0 km/h (2 Bft) 100 %
11.05.2016 20:40 17,6 C 17,6 C 17,9 C 71 % 999,8 hPa 0,0 l/m 0,5 km/h (0 Bft) S-SO 153 0 min 0,000 mm 0 W/m 12,3 C 17,6 C 4,8 km/h (1 Bft) 100 %
11.05.2016 20:50 17,4 C 17,4 C 17,6 C 71 % 999,7 hPa 0,0 l/m 0,6 km/h (0 Bft) N-NO 15 0 min 0,000 mm 0 W/m 12,1 C 17,4 C 8,0 km/h (2 Bft) 100 %
11.05.2016 21:00 17,3 C 17,3 C 17,4 C 70 % 999,7 hPa 0,0 l/m 0,6 km/h (0 Bft) NO 55 0 min 0,026 mm 0 W/m 11,8 C 17,3 C 9,7 km/h (2 Bft) 100 %
11.05.2016 21:10 17,1 C 17,1 C 17,3 C 71 % 999,7 hPa 0,0 l/m 0,1 km/h (0 Bft) N-NW 348 0 min 0,000 mm 0 W/m 11,8 C 17,1 C 6,4 km/h (2 Bft) 100 %
11.05.2016 21:20 17,0 C 17,0 C 17,1 C 72 % 999,6 hPa 0,0 l/m 0,1 km/h (0 Bft) N-NO 19 0 min 0,000 mm 0 W/m 11,9 C 17,0 C 3,2 km/h (1 Bft) 100 %
11.05.2016 21:30 16,8 C 16,8 C 17,0 C 72 % 999,6 hPa 0,0 l/m 0,4 km/h (0 Bft) SO 132 0 min 0,000 mm 0 W/m 11,7 C 16,8 C 9,7 km/h (2 Bft) 100 %
11.05.2016 21:40 16,7 C 16,7 C 16,8 C 72 % 999,5 hPa 0,0 l/m 0,6 km/h (0 Bft) N-NW 337 0 min 0,000 mm 0 W/m 11,6 C 16,7 C 8,0 km/h (2 Bft) 100 %
11.05.2016 21:50 16,6 C 16,6 C 16,7 C 72 % 999,5 hPa 0,0 l/m 0,5 km/h (0 Bft) NO 47 0 min 0,000 mm 0 W/m 11,5 C 16,6 C 8,0 km/h (2 Bft) 100 %
11.05.2016 22:00 16,5 C 16,5 C 16,6 C 72 % 999,5 hPa 0,0 l/m 0,9 km/h (0 Bft) S-SO 150 0 min 0,000 mm 0 W/m 11,4 C 16,5 C 11,3 km/h (2 Bft) 100 %
11.05.2016 22:10 16,4 C 16,4 C 16,5 C 72 % 999,4 hPa 0,0 l/m 0,3 km/h (0 Bft) N 5 0 min 0,025 mm 0 W/m 11,3 C 16,4 C 4,8 km/h (1 Bft) 100 %
11.05.2016 22:20 16,2 C 16,2 C 16,4 C 72 % 999,4 hPa 0,0 l/m 0,3 km/h (0 Bft) W 277 0 min 0,000 mm 0 W/m 11,1 C 16,2 C 4,8 km/h (1 Bft) 100 %
11.05.2016 22:30 16,1 C 16,1 C 16,2 C 72 % 999,4 hPa 0,0 l/m 0,3 km/h (0 Bft) W 263 0 min 0,000 mm 0 W/m 11,0 C 16,1 C 8,0 km/h (2 Bft) 100 %
11.05.2016 22:40 16,0 C 16,0 C 16,1 C 73 % 999,3 hPa 0,0 l/m 0,5 km/h (0 Bft) O-NO 71 0 min 0,000 mm 0 W/m 11,2 C 16,0 C 6,4 km/h (2 Bft) 100 %
11.05.2016 22:50 15,9 C 15,9 C 16,0 C 73 % 999,4 hPa 0,0 l/m 0,5 km/h (0 Bft) N-NW 346 0 min 0,000 mm 0 W/m 11,1 C 15,9 C 8,0 km/h (2 Bft) 100 %
11.05.2016 23:00 15,9 C 15,9 C 15,9 C 73 % 999,3 hPa 0,0 l/m 0,1 km/h (0 Bft) N 11 0 min 0,000 mm 0 W/m 11,1 C 15,9 C 3,2 km/h (1 Bft) 100 %
11.05.2016 23:10 15,8 C 15,8 C 15,9 C 72 % 999,4 hPa 0,0 l/m 0,3 km/h (0 Bft) W-SW 238 0 min 0,026 mm 0 W/m 10,8 C 15,8 C 9,7 km/h (2 Bft) 100 %
11.05.2016 23:20 15,9 C 15,8 C 15,9 C 71 % 999,4 hPa 0,0 l/m 0,3 km/h (0 Bft) O 96 0 min 0,000 mm 0 W/m 10,6 C 15,9 C 6,4 km/h (2 Bft) 100 %
11.05.2016 23:30 15,9 C 15,9 C 15,9 C 73 % 999,3 hPa 0,0 l/m 0,6 km/h (0 Bft) NW 312 0 min 0,000 mm 0 W/m 11,1 C 15,9 C 6,4 km/h (2 Bft) 100 %
11.05.2016 23:40 15,9 C 15,9 C 15,9 C 72 % 999,2 hPa 0,0 l/m 0,1 km/h (0 Bft) O-SO 107 0 min 0,000 mm 0 W/m 10,9 C 15,9 C 3,2 km/h (1 Bft) 100 %
11.05.2016 23:50 15,8 C 15,8 C 15,9 C 73 % 999,3 hPa 0,0 l/m 0,2 km/h (0 Bft) NO 34 0 min 0,000 mm 0 W/m 11,0 C 15,8 C 8,0 km/h (2 Bft) 100 %
_ Min-Zeit 06:10 06:10 06:20 14:50 23:40 - 00:00 - - - - - 06:10 06:10 02:30 19:00
Minimum _ 9,3 C 9,3 C 9,3 C 58 % 999,2 hPa - 0,0 km/h (0 Bft) - - - - - 7,9 C 9,3 C 0,0 km/h (0 Bft) 91 %
_ Max-Zeit 15:30 15:30 15:30 01:20 00:00 03:20 15:00 - - 08:30 15:00 14:40 12:50 15:20 14:40 01:20
Maximum _ 23,0 C 22,7 C 23,0 C 94 % 1008,1 hPa 0,2 l/m 4,9 km/h
O (1 Bft)
- - 10 min 0,432 mm 865 W/m 16,3 C 22,9 C 24,1 km/h
O-SO (4 Bft)
100 %
Durchschnitt _ 15,9 C 15,8 C 16,0 C 80 % 1003,5 hPa #0,2 l/m 0,6 km/h (0 Bft) O - #8:30 h #2,388 mm 276 W/m 12,2 C 15,9 C 6,1 km/h (2 Bft) 100 %
PRIVATE WETTERSTATION BILLIGHEIM-ALLFELD - www.neckar-odenwald-wetter.de - Holger Sonntag